sat.trackr.live / text

‹ back to catalog

STARLINK-3827

NORAD 52370 · 2022-045AR

PAYLOAD ACTIVE UNKNOWN

§ Identity

Operator
Country
US
Launch date
2022-04-29
Launch site
AFETR
Launch vehicle
Mass (kg)
RCS (m²)

Purposes: comms

External: N2YO · Heavens-Above · Gunter

§ Orbital elements

Epoch: 2026-05-24T21:09:30.933792Z

Period
95.44 min
Inclination
53.2135°
Eccentricity
0.0000958
Mean motion
15.08835579 rev/d
Perigee alt
539.1 km
Apogee alt
540.4 km
Semi-major
6,917.9 km
B*
1.5037e-5
RAAN
207.0933°
Arg perigee
82.9850°
Mean anomaly
277.1251°
Rev number
22,742

§ Raw data

STARLINK-38271 52370U 22045AR  26144.88160803 -.00000048  00000+0  15037-4 0  99932 52370  53.2135 207.0933 0000958  82.9850 277.1251 15.08835579227429

JSON: /api/v1/satellites/52370 · /tle

For live sub-satellite position, see the globe view (requires WebGL).

§ Visibility from observer

Set your observer location to see the next 7 days of passes ≥ 10°. The values pass through the URL so the page stays shareable.

No JS? Fill the form by hand. The geolocation button needs JavaScript.